Location: Clatteringshaws Loch
(55.0508°N, 4.2860°W)
Time: 23:43:00
(UTC+00:00)

Amateur Radio Satellites - All Passes

Search period start: 13 February 2016 23:13
Search period end: 14 February 2016 23:13
Location: Clatteringshaws Loch, 55.0508°N, 4.2860°W

Satellite Date Start Highest point End Downlink Frequencies (MHz)
Time Altitude Azimuth
ESTCUBE 1 13 Feb 23:14:20 23:18:40 43° 262° (W) 23:23:03 437.505/2401.250
HUMSAT D 13 Feb 23:15:16 23:17:05 13° 275° (W) 23:18:55 437.325/437.525
TIGRISAT 13 Feb 23:16:21 23:20:42 84° 287° (WNW) 23:25:07 435.000
ITUPSAT 1 13 Feb 23:24:05 23:26:48 15° 48° (NE) 23:29:31 437.325
POLYITAN 1 13 Feb 23:25:31 23:29:29 39° 97° (E) 23:33:27 437.675
QB50P2 13 Feb 23:25:56 23:29:57 40° 98° (E) 23:33:56 145.880/145.840
BEESAT 13 Feb 23:29:26 23:32:23 16° 50° (NE) 23:35:20 436.000
Cosmos 2491 13 Feb 23:32:27 23:39:09 23° 46° (NE) 23:45:51 435.465 / 435.565
DANDE 13 Feb 23:50:38 23:54:57 15° 71° (ENE) 23:59:15 436.750
POPSAT HIP 1 13 Feb 23:54:30 23:58:44 70° 104° (ESE) 00:02:55 437.405
VELOX 1 13 Feb 23:55:50 23:59:20 22° 269° (W) 00:02:50 145.980
DUCHIFAT 1 13 Feb 23:56:01 00:00:13 68° 103° (ESE) 00:04:23 145.980
TISAT 1 13 Feb 23:56:07 00:00:20 74° 72° (ENE) 00:04:33 437.305
NANOSAT C BR1 13 Feb 23:56:31 00:00:44 72° 103° (ESE) 00:04:55 145.865
AIST 2 13 Feb 23:59:24 00:02:58 26° 18° (NNE) 00:06:31 435.215
50 SAT 14 Feb 00:01:20 00:03:10 13° 273° (W) 00:05:01 437.505
UNISAT 6 14 Feb 00:02:57 00:06:52 34° 297° (WNW) 00:10:51 437.425
UKube-1 14 Feb 00:02:58 00:06:09 20° 270° (W) 00:09:21 .
SPROUT 14 Feb 00:03:36 00:07:43 45° 261° (W) 00:11:52 437.525
QB50P1 14 Feb 00:06:46 00:11:00 90° 339° (NNW) 00:15:13 145.935-145.965
AISAT 14 Feb 00:14:23 00:17:04 15° 273° (W) 00:19:45 437.250
BEESAT 3 14 Feb 00:15:13 00:19:13 72° 227° (SW) 00:23:09 437.485
SWISSCUBE 14 Feb 00:20:25 00:24:48 37° 62° (ENE) 00:29:14 437.505
CUSAT 1 14 Feb 00:20:42 00:27:33 32° 86° (E) 00:33:55 437.405
CUBEBUG 1 14 Feb 00:21:38 00:24:23 16° 273° (W) 00:27:08 437.445
DX 1 14 Feb 00:24:25 00:26:11 12° 275° (W) 00:27:57 434.975-435.025
YUBILEINY 14 Feb 00:36:49 00:40:00 12° 62° (ENE) 00:43:11 435.215
BUGSAT 1 14 Feb 00:39:39 00:43:43 82° 287° (WNW) 00:47:44 437.445
BEESAT 2 14 Feb 00:47:13 00:51:10 57° 230° (SW) 00:55:05 435.950
ANTELSAT 14 Feb 00:48:42 00:51:29 17° 306° (NW) 00:54:17 437.575/2403.000
TIGRISAT 14 Feb 00:54:12 00:56:49 16° 307° (NW) 00:59:28 435.000
JAS-2 14 Feb 00:57:00 01:01:10 21° 85° (E) 01:05:06 435.910
Gurwin Techsat 1B 14 Feb 00:58:31 01:00:38 12° 81° (E) 01:02:46 435.225
ITUPSAT 1 14 Feb 00:59:05 01:03:50 66° 69° (ENE) 01:08:38 437.325
POLYITAN 1 14 Feb 01:01:32 01:05:16 31° 297° (WNW) 01:09:00 437.675
QB50P2 14 Feb 01:01:59 01:05:41 30° 298° (WNW) 01:09:23 145.880/145.840
BEESAT 14 Feb 01:04:41 01:09:27 74° 71° (ENE) 01:14:15 436.000
STARS 14 Feb 01:09:42 01:11:39 13° 49° (NE) 01:13:38 437.465
DANDE 14 Feb 01:28:17 01:36:14 51° 92° (E) 01:44:08 436.750
Cosmos 2491 14 Feb 01:29:11 01:37:57 68° 73° (ENE) 01:46:43 435.465 / 435.565
Oscar 19 14 Feb 01:30:51 01:35:46 44° 98° (E) 01:40:40 437.125/150
POPSAT HIP 1 14 Feb 01:31:04 01:34:08 20° 303° (WNW) 01:37:11 437.405
DUCHIFAT 1 14 Feb 01:32:29 01:35:33 20° 303° (WNW) 01:38:37 145.980
NANOSAT C BR1 14 Feb 01:33:04 01:36:05 19° 303° (WNW) 01:39:05 145.865
TISAT 1 14 Feb 01:33:45 01:36:31 17° 271° (W) 01:39:18 437.305
KKS-1 14 Feb 01:35:51 01:39:42 29° 60° (ENE) 01:43:32 437.445
AIST 2 14 Feb 01:37:55 01:42:05 72° 40° (NE) 01:46:13 435.215
QB50P1 14 Feb 01:43:37 01:46:14 16° 306° (NW) 01:48:52 145.935-145.965
BEESAT 3 14 Feb 01:54:26 01:56:17 13° 247° (WSW) 01:58:08 437.485
SWISSCUBE 14 Feb 01:58:06 02:02:37 41° 262° (W) 02:07:10 437.505
MOZHAYETS 4 14 Feb 02:00:55 02:04:32 23° 57° (ENE) 02:08:10
CUSAT 1 14 Feb 02:01:07 02:09:20 83° 286° (WNW) 02:16:48 437.405
BUGSAT 1 14 Feb 02:16:19 02:18:30 14° 307° (NW) 02:20:42 437.445
YUBILEINY 14 Feb 02:26:11 02:34:25 47° 87° (E) 02:42:43 435.215
Gurwin Techsat 1B 14 Feb 02:36:25 02:41:43 62° 102° (ESE) 02:47:00 435.225
ITUPSAT 1 14 Feb 02:38:23 02:42:08 23° 269° (W) 02:45:56 437.325
JAS-2 14 Feb 02:41:21 02:47:11 80° 289° (WNW) 02:52:28 435.910
STARS 14 Feb 02:42:54 02:47:14 61° 70° (ENE) 02:51:35 437.465
BEESAT 14 Feb 02:44:16 02:47:47 20° 271° (W) 02:51:20 436.000
ITAMSAT 1 14 Feb 02:49:08 02:54:11 46° 99° (E) 02:59:13 435.822/435.867
CUBESAT XI-V 14 Feb 02:55:21 02:57:35 13° 48° (NE) 02:59:48 437.345
Oscar 19 14 Feb 03:10:22 03:15:06 38° 299° (WNW) 03:19:48 437.125/150
DANDE 14 Feb 03:11:01 03:19:16 57° 293° (WNW) 03:27:21 436.750
KKS-1 14 Feb 03:11:48 03:16:07 48° 260° (W) 03:20:28 437.445
Cosmos 2504 14 Feb 03:12:00 03:18:42 25° 74° (ENE) 03:25:26 435.465 / 435.565
AO-7 14 Feb 03:12:06 03:19:14 30° 91° (E) 03:26:18 29.400- 29.500
AIST 2 14 Feb 03:16:56 03:20:14 23° 241° (WSW) 03:23:30 435.215
Cosmos 2491 14 Feb 03:26:33 03:34:21 38° 277° (W) 03:42:10 435.465 / 435.565
MOZHAYETS 4 14 Feb 03:36:47 03:41:20 66° 257° (WSW) 03:45:57
CUSAT 1 14 Feb 03:45:52 03:52:36 28° 306° (NW) 03:58:46 437.405
SO-50 14 Feb 04:14:43 04:19:08 33° 122° (ESE) 04:23:34 436.795
Gurwin Techsat 1B 14 Feb 04:16:50 04:21:24 30° 303° (WNW) 04:25:58 435.225
STARS 14 Feb 04:20:38 04:24:00 21° 269° (W) 04:27:24 437.465
YUBILEINY 14 Feb 04:22:30 04:31:09 57° 291° (WNW) 04:39:54 435.215
HORYU 2 14 Feb 04:22:53 04:26:57 34° 96° (E) 04:31:02 437.375
JAS-2 14 Feb 04:27:18 04:31:25 20° 313° (NW) 04:35:17 435.910
ITAMSAT 1 14 Feb 04:28:48 04:33:38 38° 299° (WNW) 04:38:26 435.822/435.867
CUBESAT XI-V 14 Feb 04:29:27 04:34:04 58° 69° (ENE) 04:38:45 437.345
M-CUBED/EXP-1 PRIME 14 Feb 04:41:38 04:44:46 34° 105° (ESE) 04:48:03 437.505
AUBIESAT-1 14 Feb 04:47:23 04:50:33 33° 105° (ESE) 04:53:52 437.475
Oscar 19 14 Feb 04:52:22 04:53:08 10° 320° (NW) 04:53:54 437.125/150
DANDE 14 Feb 04:57:54 05:04:04 22° 316° (NW) 05:10:01 436.750
CUTE-I 14 Feb 05:01:16 05:02:53 11° 81° (E) 05:04:30 437.470
Cosmos 2504 14 Feb 05:02:03 05:10:51 81° 98° (E) 05:19:47 435.465 / 435.565
AO-7 14 Feb 05:04:36 05:13:01 85° 294° (WNW) 05:21:20 29.400- 29.500
Cubesat XI-IV 14 Feb 05:15:23 05:18:22 15° 84° (E) 05:21:21 437.490
MOZHAYETS 4 14 Feb 05:18:07 05:19:28 11° 278° (W) 05:20:50
STRAND 1 14 Feb 05:20:06 05:24:44 35° 60° (ENE) 05:29:24 437.568
CUSAT 1 14 Feb 05:35:59 05:37:31 11° 330° (NNW) 05:39:00 437.405
PRISM 14 Feb 05:43:33 05:46:31 19° 55° (NE) 05:49:29 437.425
BRITE-PL 14 Feb 05:49:07 05:51:45 15° 83° (E) 05:54:17 437.365/2234.400
SO-50 14 Feb 05:54:30 05:59:26 66° 323° (NW) 06:04:23 436.795
HORYU 2 14 Feb 05:59:28 06:03:36 39° 296° (WNW) 06:07:46 437.375
CUBESAT XI-V 14 Feb 06:07:57 06:11:50 25° 269° (W) 06:15:45 437.345
ITAMSAT 1 14 Feb 06:10:40 06:11:48 11° 321° (NW) 06:12:57 435.822/435.867
M-CUBED/EXP-1 PRIME 14 Feb 06:16:31 06:19:24 27° 303° (WNW) 06:22:25 437.505
AUBIESAT-1 14 Feb 06:22:09 06:25:07 28° 303° (WNW) 06:28:13 437.475
YUBILEINY 14 Feb 06:24:11 06:30:22 20° 319° (NW) 06:36:35 435.215
GOMX 1 14 Feb 06:31:32 06:34:29 17° 87° (E) 06:37:21 467.674
CUTE-I 14 Feb 06:38:49 06:44:09 57° 101° (ESE) 06:49:27 437.470
LilacSat-2 14 Feb 06:44:58 06:48:44 62° 102° (ESE) 06:52:29 437.200
O/OREOS (USA 219) 14 Feb 06:46:25 06:49:48 21° 103° (ESE) 06:53:12 437.305
Cubesat XI-IV 14 Feb 06:54:00 06:59:26 73° 105° (ESE) 07:04:49 437.490
Cosmos 2504 14 Feb 06:57:18 07:05:15 35° 303° (WNW) 07:13:15 435.465 / 435.565
AO-7 14 Feb 06:57:51 07:04:56 32° 318° (NW) 07:11:59 29.400- 29.500
STRAND 1 14 Feb 06:58:52 07:03:50 48° 261° (W) 07:08:50 437.568
PRISM 14 Feb 07:17:13 07:21:24 76° 254° (WSW) 07:25:38 437.425
BRITE-PL 14 Feb 07:26:18 07:31:09 88° 108° (ESE) 07:35:35 437.365/2234.400
DOVE 4 14 Feb 07:27:10 07:30:52 28° 93° (E) 07:34:28 437.250
CANX-2 14 Feb 07:31:44 07:34:41 18° 88° (E) 07:37:38 2200.000
SO-50 14 Feb 07:36:20 07:40:43 30° 346° (NNW) 07:45:06 436.795
CINEMA 3 14 Feb 07:48:17 07:51:13 18° 89° (E) 07:54:08 145.822/145.860
GONETS M04 14 Feb 07:52:39 08:00:30 40° 84° (E) 08:08:25
COMPASS 1 14 Feb 07:57:20 08:00:05 17° 88° (E) 08:02:49 437.405
UNISAT 6 14 Feb 07:57:35 07:59:59 15° 52° (NE) 08:02:23 437.425
Cosmos 2499 14 Feb 07:59:45 08:06:20 24° 74° (ENE) 08:12:52 435.465 / 435.565
GOMX 1 14 Feb 08:08:45 08:13:14 72° 288° (WNW) 08:17:27 467.674
HO-68 14 Feb 08:14:17 08:21:07 43° 97° (E) 08:27:54 435.675
SEEDS 14 Feb 08:19:09 08:23:00 32° 95° (E) 08:26:50 437.485
CUTE-I 14 Feb 08:19:15 08:24:00 32° 302° (WNW) 08:28:44 437.470
LilacSat-2 14 Feb 08:20:03 08:22:43 19° 301° (WNW) 08:25:23 437.200
CUTE 1.7 + AOD 2 14 Feb 08:20:52 08:24:57 41° 97° (E) 08:29:02 437.475
AAUSAT CUBESAT 2 14 Feb 08:21:08 08:24:29 22° 91° (E) 08:27:49 437.432
O/OREOS (USA 219) 14 Feb 08:24:16 08:28:46 69° 304° (WNW) 08:33:19 437.305
YUBILEINY 14 Feb 08:31:43 08:32:05 10° 353° (N) 08:32:25 435.215
Oscar 11 14 Feb 08:31:55 08:34:21 15° 86° (E) 08:36:47 145.826/435.025
Cubesat XI-IV 14 Feb 08:34:39 08:39:06 27° 305° (NW) 08:43:32 437.490
ANTELSAT 14 Feb 08:40:50 08:44:33 30° 62° (ENE) 08:48:17 437.575/2403.000
TIGRISAT 14 Feb 08:46:01 08:49:47 31° 63° (ENE) 08:53:34 435.000
AO-7 14 Feb 08:50:38 08:55:20 17° 344° (NNW) 09:00:02 29.400- 29.500
UWE-3 14 Feb 08:51:20 08:54:41 22° 92° (E) 08:58:04 435.000/436.395/437.385
POLYITAN 1 14 Feb 08:51:40 08:53:54 14° 52° (NE) 08:56:07 437.675
QB50P2 14 Feb 08:51:58 08:54:17 15° 52° (NE) 08:56:36 145.880/145.840
PRISM 14 Feb 08:56:04 08:57:30 11° 275° (W) 08:58:57 437.425
Cosmos 2504 14 Feb 08:57:44 09:02:03 14° 332° (NNW) 09:06:21 435.465 / 435.565
DELFI C3 14 Feb 08:59:13 09:01:27 14° 87° (E) 09:03:41 145.870
CUBEBUG 2 14 Feb 09:00:11 09:04:01 33° 96° (E) 09:07:55 437.445
PCSat 14 Feb 09:01:14 09:03:44 13° 103° (ESE) 09:06:15 145.827
DOVE 4 14 Feb 09:04:45 09:08:47 41° 294° (WNW) 09:12:41 437.250
BRITE-PL 14 Feb 09:05:40 09:09:00 19° 308° (NW) 09:12:09 437.365/2234.400
CANX-2 14 Feb 09:06:45 09:11:04 72° 288° (WNW) 09:15:21 2200.000
AO-85 14 Feb 09:16:45 09:21:17 28° 117° (ESE) 09:25:53 145.980
SO-50 14 Feb 09:18:10 09:22:29 29° 10° (N) 09:26:43 436.795
POPSAT HIP 1 14 Feb 09:19:20 09:22:34 22° 58° (ENE) 09:25:48 437.405
DUCHIFAT 1 14 Feb 09:20:25 09:23:34 21° 58° (ENE) 09:26:45 145.980
NANOSAT C BR1 14 Feb 09:21:01 09:24:16 22° 58° (ENE) 09:27:31 145.865
CINEMA 3 14 Feb 09:24:42 09:28:50 64° 289° (WNW) 09:32:58 145.822/145.860
QB50P1 14 Feb 09:31:07 09:34:40 27° 61° (ENE) 09:38:13 145.935-145.965
UNISAT 6 14 Feb 09:31:48 09:36:05 79° 74° (ENE) 09:40:23 437.425
COMPASS 1 14 Feb 09:31:57 09:36:12 76° 287° (WNW) 09:40:26 437.405
ZACube-1 14 Feb 09:34:26 09:38:25 39° 97° (E) 09:42:27 437.345
FUNcube-1 14 Feb 09:40:59 09:45:02 43° 98° (E) 09:49:08 145.935
RS-15 14 Feb 09:45:50 09:54:14 25° 100° (E) 10:02:55 29.354- 29.394
GOMX 1 14 Feb 09:48:12 09:50:32 14° 310° (NW) 09:52:49 467.674
GONETS M04 14 Feb 09:48:21 09:56:59 65° 288° (WNW) 10:05:43
Cosmos 2499 14 Feb 09:49:20 09:58:12 78° 97° (E) 10:07:00 435.465 / 435.565
AIST 1 14 Feb 09:52:32 09:56:35 36° 91° (E) 10:00:37
SEEDS 14 Feb 09:54:50 09:58:48 39° 295° (WNW) 10:02:47 437.485
AAUSAT CUBESAT 2 14 Feb 09:56:10 10:00:18 54° 291° (WNW) 10:04:25 437.432
CUTE 1.7 + AOD 2 14 Feb 09:56:56 10:00:43 31° 297° (WNW) 10:04:31 437.475
BUGSAT 1 14 Feb 10:01:30 10:05:01 27° 61° (ENE) 10:08:32 437.445
HO-68 14 Feb 10:02:04 10:09:06 57° 299° (WNW) 10:16:06 435.675
O/OREOS (USA 219) 14 Feb 10:05:46 10:09:02 19° 327° (NNW) 10:12:18 437.305
Oscar 11 14 Feb 10:06:46 10:11:09 89° 282° (WNW) 10:15:32 145.826/435.025
ANTELSAT 14 Feb 10:17:08 10:21:11 42° 262° (W) 10:25:16 437.575/2403.000
DANDE 14 Feb 10:19:27 10:24:28 19° 40° (NE) 10:28:48 436.750
AISAT 14 Feb 10:21:13 10:22:00 10° 83° (E) 10:22:47 437.250
TIGRISAT 14 Feb 10:22:25 10:26:27 39° 263° (W) 10:30:28 435.000
POLYITAN 1 14 Feb 10:24:50 10:29:03 75° 71° (ENE) 10:33:17 437.675
QB50P2 14 Feb 10:25:14 10:29:27 77° 74° (ENE) 10:33:42 145.880/145.840
UWE-3 14 Feb 10:27:22 10:31:29 54° 290° (WNW) 10:35:40 435.000/436.395/437.385
DX 1 14 Feb 10:27:39 10:29:20 12° 85° (E) 10:31:01 434.975-435.025
YUBILEINY 14 Feb 10:29:58 10:34:22 14° 28° (NNE) 10:38:46 435.215
DELFI C3 14 Feb 10:32:52 10:36:57 83° 284° (WNW) 10:41:01 145.870
CUBEBUG 2 14 Feb 10:36:53 10:40:43 35° 295° (WNW) 10:44:36 437.445
AO-7 14 Feb 10:40:35 10:45:02 16° 12° (NNE) 10:49:27 29.400- 29.500
PCSat 14 Feb 10:40:46 10:46:06 60° 124° (SE) 10:51:28 145.827
CANX-2 14 Feb 10:44:00 10:46:14 14° 308° (NW) 10:48:28 2200.000
HUMSAT D 14 Feb 10:48:28 10:52:38 67° 103° (ESE) 10:56:50 437.325/437.525
CUSAT 1 14 Feb 10:49:28 10:54:47 29° 55° (NE) 10:58:59 437.405
Gurwin Techsat 1B 14 Feb 10:50:28 10:51:48 11° 39° (NE) 10:53:09 435.225
POPSAT HIP 1 14 Feb 10:53:51 10:58:02 63° 257° (WSW) 11:02:14 437.405
DUCHIFAT 1 14 Feb 10:54:46 10:58:56 65° 257° (WSW) 11:03:08 145.980
NANOSAT C BR1 14 Feb 10:55:31 10:59:42 61° 258° (WSW) 11:03:54 145.865
AO-85 14 Feb 10:55:54 11:01:25 84° 318° (NW) 11:06:55 145.980
SO-50 14 Feb 10:59:01 11:03:53 56° 34° (NE) 11:08:36 436.795
ESTCUBE 1 14 Feb 10:59:41 11:03:29 25° 92° (E) 11:07:15 437.505/2401.250
CINEMA 3 14 Feb 11:03:38 11:05:15 12° 309° (NW) 11:06:52 145.822/145.860
QB50P1 14 Feb 11:06:11 11:10:17 48° 260° (W) 11:14:24 145.935-145.965
COMPASS 1 14 Feb 11:08:51 11:11:07 14° 307° (NW) 11:13:22 437.405
UNISAT 6 14 Feb 11:10:45 11:13:24 16° 273° (W) 11:16:03 437.425
ZACube-1 14 Feb 11:10:56 11:14:41 32° 297° (WNW) 11:18:29 437.345
JAS-2 14 Feb 11:15:48 11:21:43 30° 54° (NE) 11:27:07 435.910
Oscar 19 14 Feb 11:16:48 11:21:05 27° 56° (NE) 11:25:23 437.125/150
FUNcube-1 14 Feb 11:17:32 11:21:12 29° 297° (WNW) 11:24:54 145.935
50 SAT 14 Feb 11:23:16 11:26:51 39° 98° (E) 11:30:27 437.505
AIST 1 14 Feb 11:30:12 11:34:14 34° 292° (WNW) 11:38:16
AAUSAT CUBESAT 2 14 Feb 11:33:51 11:34:57 11° 311° (NW) 11:36:04 437.432
BUGSAT 1 14 Feb 11:36:16 11:40:16 45° 260° (W) 11:44:16 437.445
VELOX 1 14 Feb 11:37:28 11:41:45 44° 99° (E) 11:45:58 145.980
UKube-1 14 Feb 11:41:24 11:45:34 43° 99° (E) 11:49:42 .
SPROUT 14 Feb 11:42:56 11:46:06 20° 90° (E) 11:49:16 437.525
Oscar 11 14 Feb 11:43:55 11:46:44 17° 306° (NW) 11:49:32 145.826/435.025
Cosmos 2499 14 Feb 11:44:10 11:52:13 37° 302° (WNW) 12:00:13 435.465 / 435.565
GONETS M04 14 Feb 11:49:24 11:55:53 22° 316° (NW) 12:02:27
HO-68 14 Feb 11:50:33 11:55:30 21° 323° (NW) 12:00:27 435.675
RS-15 14 Feb 11:53:20 12:04:30 72° 126° (SE) 12:16:20 29.354- 29.394
AISAT 14 Feb 11:55:00 11:59:25 65° 103° (ESE) 12:03:47 437.250
CUBEBUG 1 14 Feb 12:00:45 12:05:08 63° 102° (ESE) 12:09:26 437.445
DX 1 14 Feb 12:01:57 12:06:21 75° 105° (ESE) 12:10:41 434.975-435.025
DANDE 14 Feb 12:02:10 12:09:23 58° 67° (ENE) 12:14:52 436.750
POLYITAN 1 14 Feb 12:02:40 12:05:24 17° 272° (W) 12:08:08 437.675
QB50P2 14 Feb 12:03:09 12:05:49 16° 272° (W) 12:08:30 145.880/145.840
UWE-3 14 Feb 12:06:05 12:07:07 11° 311° (NW) 12:08:11 435.000/436.395/437.385
DELFI C3 14 Feb 12:09:02 12:11:16 15° 306° (NW) 12:13:30 145.870
PCSat 14 Feb 12:24:36 12:29:47 42° 327° (NNW) 12:34:58 145.827
HUMSAT D 14 Feb 12:24:50 12:27:56 20° 302° (WNW) 12:31:03 437.325/437.525
Gurwin Techsat 1B 14 Feb 12:25:33 12:30:27 39° 61° (ENE) 12:35:22 435.225
YUBILEINY 14 Feb 12:26:32 12:34:38 37° 58° (ENE) 12:42:39 435.215
AO-7 14 Feb 12:28:29 12:35:15 29° 38° (NE) 12:42:00 29.400- 29.500
CUSAT 1 14 Feb 12:31:45 12:37:40 60° 264° (W) 12:42:05 437.405
ITAMSAT 1 14 Feb 12:35:59 12:40:26 29° 57° (ENE) 12:44:54 435.822/435.867
ESTCUBE 1 14 Feb 12:36:09 12:40:37 54° 292° (WNW) 12:45:02 437.505/2401.250
AO-85 14 Feb 12:37:32 12:42:38 36° 340° (NNW) 12:47:38 145.980
SO-50 14 Feb 12:39:46 12:44:19 40° 236° (SW) 12:48:43 436.795
Cosmos 2491 14 Feb 12:47:51 12:52:40 16° 67° (ENE) 12:57:29 435.465 / 435.565
Cosmos 2504 14 Feb 12:53:12 12:58:57 19° 38° (NE) 13:04:30 435.465 / 435.565
Oscar 19 14 Feb 12:54:55 13:00:04 67° 256° (WSW) 13:05:15 437.125/150
ITUPSAT 1 14 Feb 12:55:19 12:55:54 10° 81° (E) 12:56:30 437.325
50 SAT 14 Feb 12:57:32 13:00:46 27° 297° (WNW) 13:04:01 437.505
JAS-2 14 Feb 12:58:58 13:06:19 84° 255° (WSW) 13:12:50 435.910
BEESAT 14 Feb 12:59:38 13:01:15 11° 83° (E) 13:02:52 436.000
TISAT 1 14 Feb 13:08:40 13:12:44 48° 100° (E) 13:16:47 437.305
VELOX 1 14 Feb 13:14:14 13:18:07 31° 299° (WNW) 13:21:59 145.980
UKube-1 14 Feb 13:17:44 13:21:32 30° 299° (WNW) 13:25:19 .
SPROUT 14 Feb 13:18:16 13:22:30 62° 290° (WNW) 13:26:43 437.525
O/OREOS (USA 219) 14 Feb 13:30:08 13:31:56 12° 19° (NNE) 13:33:46 437.305
AISAT 14 Feb 13:32:07 13:35:34 23° 303° (WNW) 13:38:59 437.250
CUBEBUG 1 14 Feb 13:37:40 13:41:06 23° 302° (WNW) 13:44:30 437.445
DX 1 14 Feb 13:38:55 13:42:06 20° 305° (NW) 13:45:16 434.975-435.025
HO-68 14 Feb 13:40:10 13:40:38 10° 348° (NNW) 13:41:06 435.675
Cosmos 2499 14 Feb 13:44:13 13:48:37 14° 330° (NNW) 13:52:59 435.465 / 435.565
DANDE 14 Feb 13:45:42 13:51:58 35° 275° (W) 13:56:55 436.750
SWISSCUBE 14 Feb 13:50:45 13:55:05 32° 95° (E) 13:59:22 437.505
HORYU 2 14 Feb 13:53:36 13:56:09 15° 51° (NE) 13:58:42 437.375
GONETS M04 14 Feb 13:56:14 13:57:21 10° 349° (NNW) 13:58:30
M-CUBED/EXP-1 PRIME 14 Feb 14:01:58 14:04:36 22° 55° (NE) 14:07:12 437.505
Gurwin Techsat 1B 14 Feb 14:05:17 14:10:23 45° 262° (W) 14:15:31 435.225
RS-15 14 Feb 14:06:07 14:17:32 63° 336° (NNW) 14:29:35 29.354- 29.394
AUBIESAT-1 14 Feb 14:07:20 14:09:57 21° 54° (NE) 14:12:33 437.475
PCSat 14 Feb 14:10:07 14:14:30 24° 352° (N) 14:18:55 145.827
ITAMSAT 1 14 Feb 14:14:28 14:19:37 62° 257° (WSW) 14:24:50 435.822/435.867
ESTCUBE 1 14 Feb 14:14:45 14:16:31 12° 313° (NW) 14:18:17 437.505/2401.250
CUSAT 1 14 Feb 14:16:48 14:18:12 11° 290° (WNW) 14:19:33 437.405
AO-7 14 Feb 14:18:35 14:26:54 73° 62° (ENE) 14:35:15 29.400- 29.500
AO-85 14 Feb 14:19:40 14:24:28 29° 4° (N) 14:29:04 145.980
YUBILEINY 14 Feb 14:23:28 14:32:19 75° 264° (W) 14:41:05 435.215
ITUPSAT 1 14 Feb 14:30:01 14:34:49 58° 101° (ESE) 14:39:34 437.325
BEESAT 14 Feb 14:35:13 14:40:01 65° 103° (ESE) 14:44:47 436.000
Oscar 19 14 Feb 14:38:07 14:40:25 13° 277° (W) 14:42:44 437.125/150
Cosmos 2491 14 Feb 14:39:08 14:47:35 59° 91° (E) 14:56:05 435.465 / 435.565
TISAT 1 14 Feb 14:44:44 14:48:14 26° 300° (WNW) 14:51:44 437.305
Cosmos 2504 14 Feb 14:46:26 14:54:56 51° 66° (ENE) 15:02:50 435.465 / 435.565
JAS-2 14 Feb 14:46:46 14:52:09 22° 273° (W) 14:57:12 435.910
CUTE-I 14 Feb 14:53:43 14:54:53 11° 38° (NE) 14:56:04 437.470
SPROUT 14 Feb 14:55:55 14:57:42 12° 310° (NW) 14:59:29 437.525
KKS-1 14 Feb 14:55:56 14:59:16 20° 91° (E) 15:02:34 437.445
Cubesat XI-IV 14 Feb 15:07:38 15:09:57 13° 42° (NE) 15:12:17 437.490
O/OREOS (USA 219) 14 Feb 15:08:47 15:12:51 30° 43° (NE) 15:16:56 437.305
HO-68 14 Feb 15:23:49 15:25:17 11° 15° (NNE) 15:26:45 435.675
MOZHAYETS 4 14 Feb 15:25:09 15:28:30 19° 88° (E) 15:31:50
HORYU 2 14 Feb 15:27:38 15:32:02 75° 72° (ENE) 15:36:29 437.375
SWISSCUBE 14 Feb 15:28:27 15:33:04 47° 295° (WNW) 15:37:41 437.505
BRITE-PL 14 Feb 15:31:41 15:33:06 11° 44° (NE) 15:34:30 437.365/2234.400
ISS 14 Feb 15:33:22 15:36:04 24° 156° (SSE) 15:38:46 145.825
M-CUBED/EXP-1 PRIME 14 Feb 15:35:52 15:39:09 41° 253° (WSW) 15:42:19 437.505
AUBIESAT-1 14 Feb 15:41:06 15:44:24 44° 253° (WSW) 15:47:38 437.475
BEESAT 3 14 Feb 15:51:09 15:53:55 18° 117° (ESE) 15:56:39 437.485
PCSat 14 Feb 15:54:55 15:59:34 27° 18° (NNE) 16:04:12 145.827
GONETS M04 14 Feb 15:56:04 15:59:45 13° 24° (NNE) 16:03:27
ITAMSAT 1 14 Feb 15:58:16 16:00:13 12° 278° (W) 16:02:09 435.822/435.867
AO-85 14 Feb 16:00:53 16:06:07 46° 28° (NNE) 16:11:02 145.980
STARS 14 Feb 16:01:27 16:05:40 43° 99° (E) 16:09:50 437.465
LilacSat-2 14 Feb 16:01:47 16:03:43 14° 55° (NE) 16:05:38 437.200
ITUPSAT 1 14 Feb 16:08:19 16:12:25 28° 302° (WNW) 16:16:29 437.325
GOMX 1 14 Feb 16:11:48 16:13:13 11° 46° (NE) 16:14:37 467.674
AO-7 14 Feb 16:12:47 16:20:22 37° 265° (W) 16:27:59 29.400- 29.500
BEESAT 14 Feb 16:13:34 16:17:29 25° 303° (WNW) 16:21:23 436.000
RS-15 14 Feb 16:20:45 16:32:17 55° 9° (N) 16:44:18 29.354- 29.394
YUBILEINY 14 Feb 16:21:25 16:27:39 22° 288° (WNW) 16:33:53 435.215
BEESAT 2 14 Feb 16:23:52 16:27:06 24° 120° (ESE) 16:30:21 435.950
CUTE-I 14 Feb 16:28:43 16:33:35 37° 60° (ENE) 16:38:30 437.470
KKS-1 14 Feb 16:31:52 16:36:16 65° 291° (WNW) 16:40:40 437.445
Cosmos 2491 14 Feb 16:36:32 16:44:49 46° 296° (WNW) 16:53:09 435.465 / 435.565
Cosmos 2504 14 Feb 16:40:09 16:48:27 52° 271° (W) 16:56:11 435.465 / 435.565
Cubesat XI-IV 14 Feb 16:43:47 16:48:52 46° 63° (ENE) 16:54:00 437.490
O/OREOS (USA 219) 14 Feb 16:48:04 16:52:35 59° 245° (WSW) 16:57:06 437.305
MOZHAYETS 4 14 Feb 17:01:33 17:06:12 74° 289° (WNW) 17:10:51
DOVE 4 14 Feb 17:04:09 17:06:42 15° 52° (NE) 17:09:11 437.250
HO-68 14 Feb 17:05:14 17:10:32 23° 40° (NE) 17:15:51 435.675
BRITE-PL 14 Feb 17:05:14 17:10:24 40° 64° (ENE) 17:15:19 437.365/2234.400
HORYU 2 14 Feb 17:06:10 17:09:10 18° 271° (W) 17:12:10 437.375
SWISSCUBE 14 Feb 17:08:12 17:09:50 12° 316° (NW) 17:11:29 437.505
ISS 14 Feb 17:08:58 17:12:05 44° 176° (S) 17:15:13 145.825
AIST 2 14 Feb 17:22:24 17:24:17 13° 112° (ESE) 17:26:10 435.215
BEESAT 3 14 Feb 17:27:11 17:31:11 86° 317° (NW) 17:35:12 437.485
LilacSat-2 14 Feb 17:33:40 17:37:28 87° 84° (E) 17:41:18 437.200
STARS 14 Feb 17:38:06 17:41:56 31° 299° (WNW) 17:45:47 437.465
PCSat 14 Feb 17:38:32 17:43:58 62° 42° (NE) 17:49:21 145.827
Cosmos 2499 14 Feb 17:39:37 17:44:55 17° 37° (NE) 17:50:01 435.465 / 435.565
AO-85 14 Feb 17:41:40 17:46:54 59° 232° (SW) 17:51:43 145.980
GOMX 1 14 Feb 17:45:23 17:50:19 45° 66° (ENE) 17:54:57 467.674
SEEDS 14 Feb 17:45:42 17:46:48 11° 49° (NE) 17:47:54 437.485
CUTE 1.7 + AOD 2 14 Feb 17:47:09 17:49:17 14° 52° (NE) 17:51:25 437.475
GONETS M04 14 Feb 17:52:34 18:00:19 33° 55° (NE) 18:08:03
CUBESAT XI-V 14 Feb 17:56:01 18:00:40 54° 100° (E) 18:05:16 437.345
BEESAT 2 14 Feb 18:00:39 18:04:41 69° 319° (NW) 18:08:43 435.950
CUTE-I 14 Feb 18:08:25 18:13:35 48° 261° (W) 18:18:47 437.470
KKS-1 14 Feb 18:09:53 18:12:06 14° 311° (NW) 18:14:17 437.445
Cubesat XI-IV 14 Feb 18:24:09 18:29:05 38° 264° (W) 18:34:05 437.490
CANX-2 14 Feb 18:31:07 18:34:50 30° 63° (ENE) 18:38:36 2200.000
CUBEBUG 2 14 Feb 18:31:34 18:33:22 13° 51° (NE) 18:35:11 437.445
RS-15 14 Feb 18:34:21 18:46:26 82° 40° (NE) 18:58:50 29.354- 29.394
Cosmos 2504 14 Feb 18:35:44 18:39:39 14° 296° (WNW) 18:43:30 435.465 / 435.565
DOVE 4 14 Feb 18:38:54 18:43:44 68° 72° (ENE) 18:48:18 437.250
Cosmos 2491 14 Feb 18:39:22 18:44:33 17° 325° (NW) 18:49:47 435.465 / 435.565
MOZHAYETS 4 14 Feb 18:39:54 18:42:41 16° 309° (NW) 18:45:27
BRITE-PL 14 Feb 18:43:31 18:48:52 45° 263° (W) 18:53:59 437.365/2234.400
ISS 14 Feb 18:45:12 18:48:13 35° 195° (SSW) 18:51:13 145.825
HO-68 14 Feb 18:50:02 18:57:08 66° 64° (ENE) 19:04:16 435.675
COMPASS 1 14 Feb 18:54:44 18:58:18 28° 62° (ENE) 19:01:55 437.405
CINEMA 3 14 Feb 18:56:23 19:00:31 40° 66° (ENE) 19:04:31 145.822/145.860
AIST 2 14 Feb 18:57:54 19:02:03 68° 133° (SE) 19:06:13 435.215
STRAND 1 14 Feb 19:01:51 19:06:35 35° 95° (E) 19:11:18 437.568
ZACube-1 14 Feb 19:03:32 19:05:36 14° 52° (NE) 19:07:40 437.345
BEESAT 3 14 Feb 19:05:58 19:09:26 27° 339° (NNW) 19:12:55 437.485
FUNcube-1 14 Feb 19:09:37 19:11:53 14° 53° (NE) 19:14:09 145.935
LilacSat-2 14 Feb 19:10:47 19:12:24 12° 274° (W) 19:14:00 437.200
SEEDS 14 Feb 19:17:33 19:21:39 54° 69° (ENE) 19:25:48 437.485
AAUSAT CUBESAT 2 14 Feb 19:18:05 19:21:54 37° 65° (ENE) 19:25:47 437.432
CUTE 1.7 + AOD 2 14 Feb 19:20:13 19:24:25 71° 72° (ENE) 19:28:41 437.475
PCSat 14 Feb 19:22:15 19:27:10 35° 244° (WSW) 19:32:03 145.827
GOMX 1 14 Feb 19:23:45 19:28:31 35° 265° (W) 19:33:03 467.674
AO-85 14 Feb 19:24:01 19:26:20 13° 253° (WSW) 19:28:34 145.980
Cosmos 2499 14 Feb 19:32:31 19:40:44 48° 65° (ENE) 19:48:19 435.465 / 435.565
Oscar 11 14 Feb 19:33:03 19:36:42 27° 61° (ENE) 19:40:22 145.826/435.025
CUBESAT XI-V 14 Feb 19:33:49 19:37:51 28° 300° (WNW) 19:41:50 437.345
BEESAT 2 14 Feb 19:39:49 19:43:13 25° 342° (NNW) 19:46:36 435.950
GONETS M04 14 Feb 19:49:26 19:58:17 85° 262° (W) 20:07:09
DELFI C3 14 Feb 19:52:01 19:55:11 23° 60° (ENE) 19:58:23 145.870
AIST 1 14 Feb 19:52:07 19:55:33 22° 62° (ENE) 19:58:58
UWE-3 14 Feb 19:55:06 19:59:03 42° 67° (ENE) 20:02:59 435.000/436.395/437.385
CUBEBUG 2 14 Feb 20:05:07 20:09:18 67° 71° (ENE) 20:13:27 437.445
CANX-2 14 Feb 20:06:38 20:10:38 41° 263° (W) 20:14:41 2200.000
HUMSAT D 14 Feb 20:12:37 20:15:30 19° 57° (ENE) 20:18:25 437.325/437.525
DOVE 4 14 Feb 20:18:10 20:21:51 21° 270° (W) 20:25:25 437.250
ISS 14 Feb 20:22:16 20:24:02 14° 214° (SW) 20:25:46 145.825
PRISM 14 Feb 20:27:07 20:31:18 65° 103° (ESE) 20:35:26 437.425
COMPASS 1 14 Feb 20:29:45 20:33:45 44° 262° (W) 20:37:49 437.405
ESTCUBE 1 14 Feb 20:32:38 20:34:18 12° 47° (NE) 20:36:00 437.505/2401.250
CINEMA 3 14 Feb 20:33:50 20:37:48 31° 265° (W) 20:41:39 145.822/145.860
AIST 2 14 Feb 20:37:01 20:40:52 34° 334° (NNW) 20:44:43 435.215
ZACube-1 14 Feb 20:37:05 20:41:14 74° 72° (ENE) 20:45:24 437.345
HO-68 14 Feb 20:38:48 20:45:19 36° 265° (W) 20:51:55 435.675
STRAND 1 14 Feb 20:40:59 20:45:56 47° 296° (WNW) 20:50:52 437.568
FUNcube-1 14 Feb 20:43:23 20:47:32 81° 75° (ENE) 20:51:42 145.935
BEESAT 3 14 Feb 20:45:17 20:48:18 20° 2° (N) 20:51:19 437.485
RS-15 14 Feb 20:47:07 20:58:15 46° 247° (WSW) 21:09:36 29.354- 29.394
AAUSAT CUBESAT 2 14 Feb 20:53:45 20:57:29 32° 265° (W) 21:01:17 437.432
SEEDS 14 Feb 20:54:22 20:57:42 22° 269° (W) 21:01:04 437.485
CUTE 1.7 + AOD 2 14 Feb 20:57:55 21:00:47 17° 272° (W) 21:03:40 437.475
VELOX 1 14 Feb 21:06:59 21:10:02 18° 54° (NE) 21:13:05 145.980
Oscar 11 14 Feb 21:08:29 21:12:40 48° 261° (W) 21:16:53 145.826/435.025
UKube-1 14 Feb 21:08:36 21:11:28 17° 53° (NE) 21:14:20 .
UNISAT 6 14 Feb 21:18:55 21:19:26 10° 83° (E) 21:19:57 437.425
BEESAT 2 14 Feb 21:19:09 21:22:16 21° 6° (N) 21:25:22 435.950
AISAT 14 Feb 21:23:54 21:27:31 25° 58° (ENE) 21:31:07 437.250
Cosmos 2499 14 Feb 21:25:57 21:34:06 54° 270° (W) 21:41:37 435.465 / 435.565
DELFI C3 14 Feb 21:25:57 21:29:52 52° 260° (W) 21:33:50 145.870
CUBEBUG 1 14 Feb 21:28:31 21:31:56 22° 57° (ENE) 21:35:22 437.445
DX 1 14 Feb 21:28:59 21:32:40 27° 59° (ENE) 21:36:22 434.975-435.025
AIST 1 14 Feb 21:29:16 21:33:34 58° 264° (W) 21:37:48
UWE-3 14 Feb 21:32:06 21:35:42 27° 266° (W) 21:39:18 435.000/436.395/437.385
CUBEBUG 2 14 Feb 21:43:30 21:46:24 18° 271° (W) 21:49:18 437.445
HUMSAT D 14 Feb 21:46:41 21:50:45 71° 257° (WSW) 21:54:52 437.325/437.525
GONETS M04 14 Feb 21:47:12 21:53:56 26° 285° (WNW) 22:00:42
ANTELSAT 14 Feb 22:01:26 22:04:59 24° 92° (E) 22:08:35 437.575/2403.000
PRISM 14 Feb 22:03:07 22:06:17 21° 303° (WNW) 22:09:26 437.425
ESTCUBE 1 14 Feb 22:05:47 22:10:12 53° 68° (ENE) 22:14:39 437.505/2401.250
TIGRISAT 14 Feb 22:06:25 22:10:03 25° 93° (E) 22:13:43 435.000
50 SAT 14 Feb 22:10:00 22:13:39 55° 70° (ENE) 22:17:20 437.505
ZACube-1 14 Feb 22:15:27 22:18:05 16° 272° (W) 22:20:42 437.345
AIST 2 14 Feb 22:17:10 22:20:25 21° 357° (N) 22:23:39 435.215
STRAND 1 14 Feb 22:21:52 22:24:01 13° 317° (NW) 22:26:10 437.568
FUNcube-1 14 Feb 22:22:01 22:24:24 15° 273° (W) 22:26:47 145.935
BEESAT 3 14 Feb 22:23:28 22:27:05 32° 26° (NNE) 22:30:42 437.485
POPSAT HIP 1 14 Feb 22:32:47 22:34:58 14° 86° (E) 22:37:08 437.405
DUCHIFAT 1 14 Feb 22:33:17 22:35:15 13° 86° (E) 22:37:12 145.980
TISAT 1 14 Feb 22:33:29 22:36:08 16° 54° (NE) 22:38:47 437.305
NANOSAT C BR1 14 Feb 22:34:05 22:36:17 14° 86° (E) 22:38:28 145.865
VELOX 1 14 Feb 22:41:30 22:46:00 87° 259° (W) 22:50:29 145.980
UKube-1 14 Feb 22:42:37 22:46:59 89° 244° (WSW) 22:51:22 .
SPROUT 14 Feb 22:43:09 22:47:07 37° 65° (ENE) 22:51:05 437.525
Cosmos 2491 14 Feb 22:43:28 22:48:41 17° 35° (NE) 22:53:53 435.465 / 435.565
QB50P1 14 Feb 22:44:25 22:47:17 17° 89° (E) 22:50:08 145.935-145.965
UNISAT 6 14 Feb 22:52:42 22:57:03 65° 103° (ESE) 23:01:27 437.425
BEESAT 2 14 Feb 22:57:20 23:01:07 37° 29° (NNE) 23:04:52 435.950
AISAT 14 Feb 22:59:19 23:03:43 60° 257° (WSW) 23:08:09 437.250
RS-15 14 Feb 23:03:01 23:07:16 12° 272° (W) 23:11:33 29.354- 29.394
CUBEBUG 1 14 Feb 23:03:28 23:07:53 66° 257° (WSW) 23:12:19 437.445
DX 1 14 Feb 23:04:23 23:08:40 51° 259° (W) 23:12:59 434.975-435.025
